sat.trackr.live / text

‹ back to catalog

STARLINK-34774

NORAD 66485 · 2025-263A

PAYLOAD ACTIVE UNKNOWN

§ Identity

Operator
Country
US
Launch date
2025-11-15
Launch site
AFETR
Launch vehicle
Mass (kg)
RCS (m²)

Purposes: comms

External: N2YO · Heavens-Above · Gunter

§ Orbital elements

Epoch: 2026-09-20T21:03:52.161120Z

Period
94.27 min
Inclination
43.0005°
Eccentricity
0.0001786
Mean motion
15.27586757 rev/d
Perigee alt
481.8 km
Apogee alt
484.3 km
Semi-major
6,861.2 km
B*
4.2634e-4
RAAN
328.1029°
Arg perigee
276.1257°
Mean anomaly
83.9391°
Rev number
4,875

§ Raw data

STARLINK-347741 66485U 25263A   26263.87768705  .00011491  00000+0  42634-3 0  99912 66485  43.0005 328.1029 0001786 276.1257  83.9391 15.27586757 48750

JSON: /api/v1/satellites/66485 · /tle

For live sub-satellite position, see the globe view (requires WebGL).

§ Visibility from observer

Set your observer location to see the next 7 days of passes ≥ 10°. The values pass through the URL so the page stays shareable.

No JS? Fill the form by hand. The geolocation button needs JavaScript.